User: anonymous   Login
Location: Unspecified
(0.0000°N, 0.0000°E)
Time: 00:05:27
(UTC+00:00)
Language:

MOZHAYETS 4 - Orbit

View from above orbital plane
View from above orbital plane
View from above satellite
View from above satellite

Ground track
Ground track

The orbit data is extracted from the following two-line orbital elements,

1 27939U 03042A   17172.90077975 +.00000120 +00000-0 +29977-4 0  9992
2 27939 097.9398 317.4891 0012376 205.6468 306.3490 14.66571912734001
Epoch (UTC): 21 June 2017 21:37:07
Eccentricity: 0.0012376
inclination: 97.9398°
perigee height: 663 km
apogee height: 681 km
right ascension of ascending node: 317.4891°
argument of perigee: 205.6468°
revolutions per day: 14.66571912
mean anomaly at epoch: 306.3490°
orbit number at epoch: 73400

The dashed part of the orbit path shows where the satellite is in the earth's shadow,  

DLR